<?xml version="1.0" encoding="UTF-8"?>
<gpx
version="1.1"
creator="Kashmir3D 9.340 - http://www.kashmir3d.com"
xmlns:xsi="http://www.w3.org/2001/XMLSchema-instance"
xmlns="http://www.topografix.com/GPX/1/1"
xmlns:kashmir3d="http://www.kashmir3d.com/namespace/kashmir3d"
xsi:schemaLocation="http://www.topografix.com/GPX/1/1 http://www.topografix.com/GPX/1/1/gpx.xsd
	http://www.kashmir3d.com/namespace/kashmir3d http://www.kashmir3d.com/namespace/kashmir3d.xsd">
<trk>
 <name>小文字山</name>
 <number>1</number>
 <extensions>
 <kashmir3d:line_color>0000ff</kashmir3d:line_color>
 <kashmir3d:line_size>3</kashmir3d:line_size>
 <kashmir3d:line_style>1</kashmir3d:line_style>
 <kashmir3d:icon>901001</kashmir3d:icon>
 </extensions>
<trkseg>
<trkpt lat="33.875287" lon="130.905360">
 <ele>87</ele>
 <time>2020-03-24T14:34:22Z</time>
</trkpt>
<trkpt lat="33.875270" lon="130.905789">
 <ele>99.5</ele>
 <time>2020-03-24T14:34:22Z</time>
</trkpt>
<trkpt lat="33.875261" lon="130.906036">
 <ele>107.5</ele>
 <time>2020-03-24T14:34:22Z</time>
</trkpt>
<trkpt lat="33.875201" lon="130.906219">
 <ele>113</ele>
 <time>2020-03-24T14:34:23Z</time>
</trkpt>
<trkpt lat="33.875158" lon="130.906326">
 <ele>117.1</ele>
 <time>2020-03-24T14:34:23Z</time>
</trkpt>
<trkpt lat="33.875287" lon="130.906519">
 <ele>123.8</ele>
 <time>2020-03-24T14:34:23Z</time>
</trkpt>
<trkpt lat="33.875355" lon="130.906626">
 <ele>128.5</ele>
 <time>2020-03-24T14:34:23Z</time>
</trkpt>
<trkpt lat="33.875313" lon="130.906873">
 <ele>143.9</ele>
 <time>2020-03-24T14:34:23Z</time>
</trkpt>
<trkpt lat="33.875261" lon="130.907270">
 <ele>166.6</ele>
 <time>2020-03-24T14:34:23Z</time>
</trkpt>
<trkpt lat="33.875227" lon="130.907613">
 <ele>189.2</ele>
 <time>2020-03-24T14:34:23Z</time>
</trkpt>
<trkpt lat="33.875184" lon="130.907849">
 <ele>202.8</ele>
 <time>2020-03-24T14:34:23Z</time>
</trkpt>
<trkpt lat="33.875141" lon="130.908257">
 <ele>236.6</ele>
 <time>2020-03-24T14:34:23Z</time>
</trkpt>
<trkpt lat="33.875098" lon="130.908568">
 <ele>258.6</ele>
 <time>2020-03-24T14:34:24Z</time>
</trkpt>
<trkpt lat="33.875046" lon="130.908697">
 <ele>266.3</ele>
 <time>2020-03-24T14:34:24Z</time>
</trkpt>
<trkpt lat="33.874798" lon="130.908890">
 <ele>254.9</ele>
 <time>2020-03-24T14:34:24Z</time>
</trkpt>
<trkpt lat="33.874583" lon="130.909137">
 <ele>252.1</ele>
 <time>2020-03-24T14:34:24Z</time>
</trkpt>
<trkpt lat="33.874368" lon="130.909330">
 <ele>264.1</ele>
 <time>2020-03-24T14:34:24Z</time>
</trkpt>
<trkpt lat="33.874240" lon="130.909512">
 <ele>272.6</ele>
 <time>2020-03-24T14:34:24Z</time>
</trkpt>
<trkpt lat="33.874085" lon="130.909598">
 <ele>286</ele>
 <time>2020-03-24T14:34:24Z</time>
</trkpt>
<trkpt lat="33.873922" lon="130.909802">
 <ele>300.2</ele>
 <time>2020-03-24T14:34:24Z</time>
</trkpt>
<trkpt lat="33.873759" lon="130.909963">
 <ele>317.6</ele>
 <time>2020-03-24T14:34:24Z</time>
</trkpt>
<trkpt lat="33.873622" lon="130.910017">
 <ele>329.9</ele>
 <time>2020-03-24T14:34:24Z</time>
</trkpt>
<trkpt lat="33.873450" lon="130.910199">
 <ele>347.7</ele>
 <time>2020-03-24T14:34:25Z</time>
</trkpt>
<trkpt lat="33.873347" lon="130.910349">
 <ele>361.6</ele>
 <time>2020-03-24T14:34:25Z</time>
</trkpt>
<trkpt lat="33.873218" lon="130.910435">
 <ele>364.3</ele>
 <time>2020-03-24T14:34:25Z</time>
</trkpt>
<trkpt lat="33.873356" lon="130.910360">
 <ele>361.6</ele>
 <time>2020-03-24T14:34:25Z</time>
</trkpt>
<trkpt lat="33.873459" lon="130.910188">
 <ele>347.7</ele>
 <time>2020-03-24T14:34:25Z</time>
</trkpt>
<trkpt lat="33.873622" lon="130.910017">
 <ele>329.9</ele>
 <time>2020-03-24T14:34:25Z</time>
</trkpt>
<trkpt lat="33.873776" lon="130.909974">
 <ele>314.8</ele>
 <time>2020-03-24T14:34:25Z</time>
</trkpt>
<trkpt lat="33.873922" lon="130.909802">
 <ele>300.2</ele>
 <time>2020-03-24T14:34:25Z</time>
</trkpt>
<trkpt lat="33.874085" lon="130.909609">
 <ele>286</ele>
 <time>2020-03-24T14:34:25Z</time>
</trkpt>
<trkpt lat="33.874240" lon="130.909523">
 <ele>272.6</ele>
 <time>2020-03-24T14:34:26Z</time>
</trkpt>
<trkpt lat="33.874377" lon="130.909319">
 <ele>262.1</ele>
 <time>2020-03-24T14:34:26Z</time>
</trkpt>
<trkpt lat="33.874583" lon="130.909137">
 <ele>252.1</ele>
 <time>2020-03-24T14:34:26Z</time>
</trkpt>
<trkpt lat="33.874798" lon="130.908890">
 <ele>254.9</ele>
 <time>2020-03-24T14:34:26Z</time>
</trkpt>
<trkpt lat="33.875046" lon="130.908708">
 <ele>266.3</ele>
 <time>2020-03-24T14:34:26Z</time>
</trkpt>
<trkpt lat="33.875098" lon="130.908558">
 <ele>258.6</ele>
 <time>2020-03-24T14:34:26Z</time>
</trkpt>
<trkpt lat="33.875141" lon="130.908246">
 <ele>236.6</ele>
 <time>2020-03-24T14:34:26Z</time>
</trkpt>
<trkpt lat="33.875192" lon="130.907860">
 <ele>206.3</ele>
 <time>2020-03-24T14:34:26Z</time>
</trkpt>
<trkpt lat="33.875235" lon="130.907613">
 <ele>189.2</ele>
 <time>2020-03-24T14:34:26Z</time>
</trkpt>
<trkpt lat="33.875270" lon="130.907270">
 <ele>166.8</ele>
 <time>2020-03-24T14:34:26Z</time>
</trkpt>
<trkpt lat="33.875321" lon="130.906862">
 <ele>141.5</ele>
 <time>2020-03-24T14:34:27Z</time>
</trkpt>
<trkpt lat="33.875355" lon="130.906637">
 <ele>128.5</ele>
 <time>2020-03-24T14:34:27Z</time>
</trkpt>
<trkpt lat="33.875287" lon="130.906519">
 <ele>123.8</ele>
 <time>2020-03-24T14:34:27Z</time>
</trkpt>
<trkpt lat="33.875158" lon="130.906347">
 <ele>117.1</ele>
 <time>2020-03-24T14:34:27Z</time>
</trkpt>
<trkpt lat="33.875218" lon="130.906219">
 <ele>113</ele>
 <time>2020-03-24T14:34:27Z</time>
</trkpt>
<trkpt lat="33.875261" lon="130.906026">
 <ele>107.5</ele>
 <time>2020-03-24T14:34:27Z</time>
</trkpt>
<trkpt lat="33.875270" lon="130.905800">
 <ele>100.7</ele>
 <time>2020-03-24T14:34:27Z</time>
</trkpt>
<trkpt lat="33.875287" lon="130.905360">
 <ele>87</ele>
 <time>2020-03-24T14:34:27Z</time>
</trkpt>
</trkseg>
</trk>
</gpx>

